New Windsor, NY

9:59 AM EST on December 07, 2016 (GMT -0500)
Stewart International

Weather History for KSWF - April, 2014

Change the Weather History Date:

Friday, April 11, 2014

  Actual Average Record
Temperature  
Mean Temperature 57 °F -  
Max Temperature 66 °F 56 °F 80 °F (2011)
Min Temperature 48 °F 35 °F 21 °F (1975)
Degree Days  
Heating Degree Days 8    
Growing Degree Days 7 (Base 50)    
Moisture  
Dew Point 43 °F    
Average Humidity 64    
Maximum Humidity 94    
Minimum Humidity 44    
Precipitation  
Precipitation 0.00 in - - ()
Sea Level Pressure  
Sea Level Pressure 29.99 in    
Wind  
Wind Speed 11 mph (WSW)    
Max Wind Speed 16 mph    
Max Gust Speed 23 mph    
Visibility 12 miles    
Events Rain    
Averages and records for this station are not official NWS values.
T = Trace of Precipitation, MM = Missing Value Source: NWS Daily Summary

Daily Weather History Graph

Daily Weather History Graph

Search for Another Location

Airport or City:

Trip Planner

Search our weather history database for the weather conditions in past years. The results will help you decide how hot, cold, wet, or windy it might be!

Date:

Astronomy

Apr. 11, 2014 Rise Set
Actual Time 6:23 AM EDT 7:32 PM EDT
Civil Twilight 5:54 AM EDT 8:01 PM EDT
Nautical Twilight 5:20 AM EDT 8:35 PM EDT
Astronomical Twilight 4:44 AM EDT 9:11 PM EDT
Moon 4:08 PM EDT (4/11) 4:19 AM EDT (4/11)
Length of Visible Light 14h 06m
Length of Day
13h 09m
Waxing Gibbous, 87% of the Moon is Illuminated
Apr 11
Waxing Gibbous
Apr 15
Full
Apr 22
Last Quarter
Apr 29
New
May 6
First Quarter

Hourly Weather History & Observations

Time (EDT) Temp. Dew Point Humidity Pressure Visibility Wind Dir Wind Speed Gust Speed Precip Events Conditions
12:45 AM 55.4 °F 33.8 °F 44% 29.98 in 10.0 mi SSW 16.1 mph - N/A   Overcast
1:45 AM 55.4 °F 33.8 °F 44% 29.97 in 10.0 mi SSW 16.1 mph - N/A   Overcast
2:45 AM 55.4 °F 35.6 °F 47% 29.92 in 10.0 mi SSW 16.1 mph - N/A   Mostly Cloudy
3:45 AM 57.2 °F 35.6 °F 44% 29.92 in 10.0 mi WSW 11.5 mph - N/A   Mostly Cloudy
4:45 AM 55.4 °F 35.6 °F 47% 29.94 in 10.0 mi West 6.9 mph - N/A   Overcast
5:45 AM 53.6 °F 37.4 °F 54% 29.96 in 10.0 mi WNW 5.8 mph - N/A   Overcast
6:45 AM 53.6 °F 37.4 °F 54% 29.98 in 20.0 mi WSW 10.4 mph - N/A   Mostly Cloudy
7:45 AM 53.6 °F 37.4 °F 54% 30.00 in 20.0 mi West 6.9 mph - N/A   Mostly Cloudy
8:45 AM 57.2 °F 39.2 °F 51% 30.01 in 20.0 mi WSW 5.8 mph - N/A   Mostly Cloudy
9:45 AM 60.8 °F 39.2 °F 45% 30.00 in 20.0 mi Calm Calm - N/A   Mostly Cloudy
10:45 AM 64.4 °F 42.8 °F 45% 30.00 in 20.0 mi West 4.6 mph - N/A   Mostly Cloudy
11:45 AM 66.2 °F 44.6 °F 46% 29.99 in 20.0 mi SSW 4.6 mph - N/A   Mostly Cloudy
12:45 PM 66.2 °F 44.6 °F 46% 29.97 in 20.0 mi SSW 11.5 mph - N/A   Mostly Cloudy
1:45 PM 66.2 °F 44.6 °F 46% 29.96 in 20.0 mi WSW 11.5 mph 17.3 mph N/A   Overcast
3:45 PM 60.8 °F 53.6 °F 77% 29.98 in 10.0 mi West 13.8 mph - N/A Rain Light Rain
4:45 PM 60.8 °F 53.6 °F 77% 29.96 in 10.0 mi West 13.8 mph 23.0 mph N/A Rain Light Rain
5:45 PM 57.2 °F 53.6 °F 88% 29.99 in 5.0 mi West 13.8 mph 23.0 mph N/A Rain Light Rain
6:45 PM 57.2 °F 53.6 °F 88% 30.00 in 10.0 mi West 11.5 mph - N/A   Overcast
7:45 PM 53.6 °F 51.8 °F 94% 30.01 in 6.0 mi NW 8.1 mph - N/A Rain Light Rain
8:45 PM 50.0 °F 48.2 °F 94% 30.05 in 6.0 mi East 8.1 mph - N/A Rain Light Rain
9:45 PM 50.0 °F 48.2 °F 94% 30.05 in 5.0 mi ENE 8.1 mph - N/A   Light Drizzle
10:45 PM 48.2 °F 46.4 °F 93% 30.03 in 6.0 mi East 8.1 mph - N/A   Light Drizzle
11:45 PM 48.2 °F 46.4 °F 93% 30.03 in 6.0 mi Variable 4.6 mph - N/A   Light Drizzle